Location: Keppel Henge
(44.7900°N, 80.9447°W)
Time: 01:13:43
(UTC-05:00)

Vanguard 1 Rocket - Pass Details

Date: 27 October 2017
Orbit: 655 x 4222 km, 34.3° (Epoch: 17 November)

Event Time Altitude Azimuth Distance (km) Brightness Sun altitude
Rises 08:12:38 0° 252° (WSW) 5,567 10.9 2.0°
Reaches altitude 10° 08:17:20 10° 245° (WSW) 3,967 10.3 2.8°
Maximum altitude 08:25:29 35° 184° (S) 1,683 9.1 4.2°
Drops below altitude 10° 08:30:31 10° 119° (ESE) 2,419 12.4 5.0°
Sets 08:32:43 0° 109° (ESE) 3,173 12.9 5.3°
